Location: Bernay
(48.6766°N, 2.9386°E)
Time: 15:27:21
(UTC+00:00)

Spot 4 Rocket - Pass Details

Date: 12 January 2026
Orbit: 768 x 774 km, 98.8° (Epoch: 10 February)

Event Time Altitude Azimuth Distance (km) Brightness Sun altitude
Rises 17:45:28 0° 150° (SSE) 3,240 7.1 -14.2°
Reaches altitude 10° 17:47:48 10° 146° (SE) 2,317 6.3 -14.6°
Maximum altitude 17:52:47 56° 69° (ENE) 921 4.0 -15.4°
Drops below altitude 10° 17:57:48 10° 353° (N) 2,332 6.4 -16.2°
Sets 18:00:09 0° 349° (N) 3,263 7.2 -16.6°
